Weather History for Bentonville, AR

Change the Weather History Date:

Sunday, March 24, 2013

  Actual Average Record
Temperature  
Mean Temperature 34 °F -  
Max Temperature 41 °F 60 °F 80 °F (1959)
Min Temperature 28 °F 35 °F 17 °F (1974)
Degree Days  
Heating Degree Days 30    
Moisture  
Dew Point 28 °F    
Average Humidity 79    
Maximum Humidity 93    
Minimum Humidity 60    
Precipitation  
Precipitation 0.03 in - - ()
Sea Level Pressure  
Sea Level Pressure 29.84 in    
Wind  
Wind Speed 10 mph (WNW)    
Max Wind Speed 23 mph    
Max Gust Speed 32 mph    
Visibility 6 miles    
Events      
Averages and records for this station are not official NWS values.
T = Trace of Precipitation, MM = Missing Value Source: NWS Daily Summary

Daily Weather History Graph

Daily Weather History Graph

Search for Another Location

Airport:

Trip Planner

Search our weather history database for the weather conditions in past years. The results will help you decide how hot, cold, wet, or windy it might be!

Date:

Astronomy

Mar. 24, 2013 Rise Set
Actual Time 7:14 AM CDT 7:32 PM CDT
Civil Twilight 6:48 AM CDT 7:58 PM CDT
Nautical Twilight 6:18 AM CDT 8:28 PM CDT
Astronomical Twilight 5:47 AM CDT 8:59 PM CDT
Moon 5:04 PM CDT (3/24) 5:20 AM CDT (3/24)
Length of Visible Light 13h 09m
Length of Day
12h 18m
Waxing Gibbous, 92% of the Moon is Illuminated
Mar 24
Waxing Gibbous
Mar 27
Full
Apr 2
Last Quarter
Apr 10
New
Apr 18
First Quarter

Hourly Weather History & Observations

Time (CDT) Temp. Windchill Dew Point Humidity Pressure Visibility Wind Dir Wind Speed Gust Speed Precip Events Conditions
12:15 AM 41.0 °F - 37.4 °F 87% 29.72 in 2.0 mi Calm Calm - N/A   Overcast
12:35 AM 41.0 °F - 37.4 °F 87% 29.71 in 1.8 mi Calm Calm - N/A   Overcast
12:55 AM 41.0 °F - 37.4 °F 87% 29.72 in 2.0 mi Calm Calm - N/A   Overcast
1:15 AM 41.0 °F - 37.4 °F 87% 29.75 in 1.5 mi Calm Calm - N/A   Overcast
1:35 AM 41.0 °F - 37.4 °F 87% 29.70 in 1.5 mi Calm Calm - N/A   Overcast
1:55 AM 39.2 °F - 37.4 °F 93% 29.70 in 2.5 mi Calm Calm - N/A   Overcast
2:35 AM 41.0 °F 38.0 °F 37.4 °F 87% 29.71 in 3.0 mi South 4.6 mph - 0.02 in   Overcast
2:55 AM 39.2 °F 33.0 °F 37.4 °F 93% 29.66 in 3.0 mi ESE 9.2 mph - 0.02 in   Overcast
3:15 AM 39.2 °F 35.9 °F 37.4 °F 93% 29.64 in 4.0 mi SSE 4.6 mph - N/A   Overcast
3:35 AM 41.0 °F 36.4 °F 37.4 °F 87% 29.65 in 6.0 mi South 6.9 mph - N/A   Overcast
3:55 AM 41.0 °F 35.8 °F 37.4 °F 87% 29.65 in 6.0 mi SW 8.1 mph - N/A   Overcast
4:15 AM 41.0 °F 34.7 °F 37.4 °F 87% 29.64 in 2.5 mi WSW 10.4 mph - N/A   Overcast
4:35 AM 39.2 °F 32.5 °F 37.4 °F 93% 29.63 in 3.0 mi West 10.4 mph - N/A   Overcast
4:55 AM 39.2 °F 31.2 °F 37.4 °F 93% 29.63 in 8.0 mi West 13.8 mph - N/A   Overcast
5:15 AM 37.4 °F 27.8 °F 35.6 °F 93% 29.64 in 2.0 mi West 17.3 mph - 0.01 in   Overcast
5:55 AM 35.6 °F 25.5 °F 30.2 °F 81% 29.65 in 10.0 mi West 17.3 mph 21.9 mph 0.01 in   Overcast
6:35 AM 33.8 °F 23.9 °F 30.2 °F 87% 29.66 in 10.0 mi West 15.0 mph 18.4 mph N/A   Overcast
7:15 AM 33.8 °F 24.8 °F 28.4 °F 81% 29.67 in 4.0 mi WNW 12.7 mph 21.9 mph N/A   Overcast
7:35 AM 33.8 °F 23.5 °F 28.4 °F 81% 29.68 in 1.5 mi West 16.1 mph 20.7 mph N/A   Overcast
7:55 AM 33.8 °F 23.2 °F 28.4 °F 81% 29.68 in 3.0 mi WNW 17.3 mph 21.9 mph N/A   Overcast
8:15 AM 33.8 °F 23.5 °F 28.4 °F 81% 29.70 in 10.0 mi WNW 16.1 mph 24.2 mph N/A   Overcast
8:35 AM 32.0 °F 20.1 °F 28.4 °F 87% 29.71 in 4.0 mi WNW 19.6 mph - N/A   Overcast
8:55 AM 32.0 °F 20.5 °F 28.4 °F 87% 29.72 in 3.0 mi WNW 18.4 mph 26.5 mph N/A   Overcast
9:15 AM 32.0 °F 20.8 °F 28.4 °F 87% 29.73 in 5.0 mi WNW 17.3 mph 23.0 mph N/A   Overcast
9:35 AM 32.0 °F 20.8 °F 26.6 °F 80% 29.75 in 7.0 mi NW 17.3 mph 24.2 mph N/A   Overcast
9:55 AM 32.0 °F 20.5 °F 26.6 °F 80% 29.76 in 10.0 mi NW 18.4 mph 26.5 mph N/A   Overcast
10:15 AM 32.0 °F 20.8 °F 26.6 °F 80% 29.79 in 10.0 mi NW 17.3 mph 21.9 mph N/A   Overcast
10:35 AM 32.0 °F 21.2 °F 26.6 °F 80% 29.80 in 7.0 mi NW 16.1 mph 26.5 mph N/A   Overcast
10:55 AM 32.0 °F 19.8 °F 26.6 °F 80% 29.82 in 4.0 mi NW 20.7 mph 25.3 mph N/A   Overcast
11:15 AM 32.0 °F 20.5 °F 26.6 °F 80% 29.83 in 5.0 mi NNW 18.4 mph 26.5 mph N/A   Overcast
11:35 AM 32.0 °F 21.6 °F 26.6 °F 80% 29.83 in 2.5 mi NNW 15.0 mph 24.2 mph N/A   Overcast
11:55 AM 32.0 °F 19.8 °F 26.6 °F 80% 29.85 in 2.5 mi NW 20.7 mph 25.3 mph N/A   Overcast
12:15 PM 30.2 °F 19.3 °F 26.6 °F 86% 29.86 in 3.0 mi NW 15.0 mph 25.3 mph N/A   Overcast
12:56 PM 32.0 °F 20.8 °F 26.6 °F 80% 29.88 in 10.0 mi NW 17.3 mph 25.3 mph N/A   Overcast
1:15 PM 32.0 °F 20.1 °F 24.8 °F 75% 29.90 in 9.0 mi NW 19.6 mph 28.8 mph N/A   Overcast
1:35 PM 32.0 °F 19.8 °F 24.8 °F 75% 29.90 in 7.0 mi NW 20.7 mph 24.2 mph N/A   Overcast
2:15 PM 32.0 °F 21.2 °F 26.6 °F 80% 29.91 in 3.0 mi NW 16.1 mph 26.5 mph N/A   Overcast
2:35 PM 32.0 °F 21.2 °F 24.8 °F 75% 29.91 in 5.0 mi NW 16.1 mph 27.6 mph N/A   Overcast
2:55 PM 32.0 °F 20.1 °F 24.8 °F 75% 29.92 in 3.0 mi NW 19.6 mph 32.2 mph N/A   Overcast
3:15 PM 32.0 °F 22.5 °F 24.8 °F 75% 29.93 in 5.0 mi NW 12.7 mph 26.5 mph N/A   Overcast
3:35 PM 30.2 °F 18.9 °F 24.8 °F 80% 29.93 in 10.0 mi NW 16.1 mph 23.0 mph N/A   Overcast
4:15 PM 32.0 °F 21.6 °F 24.8 °F 75% 29.94 in 10.0 mi NW 15.0 mph 19.6 mph N/A   Overcast
4:35 PM 32.0 °F 19.2 °F 23.0 °F 69% 29.95 in 10.0 mi WNW 23.0 mph 28.8 mph N/A   Overcast
4:55 PM 30.2 °F 17.8 °F 21.2 °F 69% 29.95 in 10.0 mi NW 19.6 mph 32.2 mph N/A   Overcast
5:15 PM 30.2 °F 18.9 °F 23.0 °F 75% 29.96 in 10.0 mi NW 16.1 mph 27.6 mph N/A   Overcast
5:35 PM 30.2 °F 20.8 °F 23.0 °F 75% 29.96 in 10.0 mi NW 11.5 mph 20.7 mph N/A   Overcast
6:15 PM 30.2 °F 20.2 °F 21.2 °F 69% 29.98 in 10.0 mi NNW 12.7 mph 23.0 mph N/A   Overcast
6:35 PM 30.2 °F 19.3 °F 21.2 °F 69% 29.99 in 10.0 mi NW 15.0 mph 23.0 mph N/A   Overcast
7:35 PM 30.2 °F 21.3 °F 21.2 °F 69% 30.03 in 10.0 mi NW 10.4 mph 19.6 mph N/A   Overcast
7:55 PM 30.2 °F 19.3 °F 21.2 °F 69% 30.04 in 10.0 mi NW 15.0 mph - N/A   Overcast
8:15 PM 30.2 °F 20.8 °F 21.2 °F 69% 30.05 in 10.0 mi NW 11.5 mph 20.7 mph N/A   Overcast
8:35 PM 30.2 °F 18.9 °F 21.2 °F 69% 30.05 in 10.0 mi NW 16.1 mph 21.9 mph N/A   Overcast
8:55 PM 30.2 °F 17.1 °F 19.4 °F 64% 30.06 in 10.0 mi NW 21.9 mph 25.3 mph N/A   Overcast
9:15 PM 30.2 °F 21.3 °F 17.6 °F 60% 30.07 in 10.0 mi NW 10.4 mph 17.3 mph N/A   Mostly Cloudy
9:35 PM 28.4 °F 19.1 °F 19.4 °F 69% 30.08 in 10.0 mi NW 10.4 mph 18.4 mph N/A   Partly Cloudy
9:55 PM 28.4 °F 19.7 °F 19.4 °F 69% 30.09 in 10.0 mi WNW 9.2 mph - N/A   Clear
10:35 PM 28.4 °F 20.4 °F 19.4 °F 69% 30.10 in 10.0 mi WNW 8.1 mph - N/A   Clear
10:55 PM 28.4 °F 22.2 °F 19.4 °F 69% 30.10 in 10.0 mi WNW 5.8 mph - N/A   Mostly Cloudy
11:35 PM 28.4 °F 20.4 °F 19.4 °F 69% 30.08 in 10.0 mi NW 8.1 mph - N/A   Clear
11:55 PM 28.4 °F 20.4 °F 19.4 °F 69% 30.09 in 10.0 mi NW 8.1 mph - N/A   Clear